Flag for Namibia

Past Weather in Walvis Bay, Namibia — Yesterday and Last 2 Weeks

Now
70 °F

Mild.


Feels Like: 70 °F
Forecast: 77 / 61 °F
Wind: 8 mph from North

Location: Walvis Bay

Current Time: Jul 14, 2020 at 7:23:44 pm

Latest Report: Jul 14, 2020 at 6:00 pm


Visibility: N/A

Pressure: 30.01 "Hg

Humidity: 46%

Dew Point: 48 °F

Location of Walvis BayLocation

Past Weather in Walvis Bay — Graph

°F

Walvis Bay Temperature Yesterday

Maximum temperature yesterday: 72 °F (at 4:00 pm)
Minimum temperature yesterday: 48 °F (at 1:00 am)
Average temperature yesterday: 58 °F

High & Low Weather Summary for the Past Weeks

 TemperatureHumidityPressure
High95 °F (Jul 4, 3:00 pm)100% (Jul 7, 4:00 am)30.21 "Hg (Jul 7, 4:00 am)
Low43 °F (Jul 12, 8:00 am)8% (Jul 4, 2:00 pm)29.89 "Hg (Jul 8, 4:00 pm)
Average64 °F53%30.06 "Hg
* Reported Jun 29 6:00 pm — Jul 14 6:00 pm, Walvis Bay. Weather by CustomWeather, © 2020

Note: Actual official high and low records may vary slightly from our data, if they occured in-between our weather recording intervals... More about our weather records

Walvis Bay Weather History for the Previous 24 Hours

Scroll right to see more
 ConditionsComfort  
Time TempWeatherWind HumidityBarometerVisibility
6:00 pm
Tue, Jul 14
70 °FMild.8 mph46%30.01 "HgN/A
4:00 pm73 °FSunny.12 mph38%30.04 "Hg10 mi
3:00 pm75 °FSunny.9 mph34%30.07 "Hg10 mi
2:00 pm72 °FSunny.7 mph36%30.09 "Hg10 mi
1:00 pm68 °FSunny.3 mph43%30.12 "Hg10 mi
12:00 pm64 °FMild.2 mph49%30.15 "HgN/A
11:00 am59 °FSunny.8 mph63%30.18 "Hg10 mi
10:00 am52 °FSunny.12 mph88%30.15 "Hg10 mi
9:00 am48 °FFog.8 mph94%30.15 "Hg0 mi
8:00 am45 °FFog.3 mph100%30.15 "Hg0 mi
7:00 am43 °FQuite cool.6 mph100%30.12 "HgN/A
6:00 am45 °FQuite cool.8 mph93%30.12 "HgN/A
5:00 am46 °FCool.3 mph93%30.12 "HgN/A
4:00 am46 °FCool.9 mph93%30.12 "HgN/A
3:00 am48 °FCool.8 mph94%30.12 "HgN/A
2:00 am48 °FCool.3 mph94%30.12 "HgN/A
1:00 am52 °FCool.1 mph94%30.12 "HgN/A
12:00 am55 °FCool.3 mph88%30.15 "HgN/A
11:00 pm
Mon, Jul 13
55 °FCool.2 mph82%30.15 "HgN/A
10:00 pm55 °FCool.9 mph82%30.12 "HgN/A
9:00 pm59 °FCool.15 mph72%30.12 "HgN/A
8:00 pm61 °FCool.13 mph68%30.09 "HgN/A
7:00 pm64 °FMild.16 mph60%30.09 "HgN/A
Weather by CustomWeather, © 2020

See weather overview